Tracking 18633 objects as of 23-April-2017
HD Live streaming from Space Station
objects crossing your sky now

SINAH 1

Track SINAH 1 now!
10-day predictions
SINAH 1 is classified as:


NORAD ID: 28893
Int'l Code: 2005-043D
Perigee: 685.5 km
Apogee: 705.9 km
Inclination: 97.9 °
Period: 98.5 minutes
Semi major axis: 7066 km
RCS: 0.8773 m2 (medium)
Launch date: October 27, 2005
Source: Iran (IRAN)
Launch site: PLESETSK MISSILE AND SPACE COMPLEX (PKMTR)

Sinah 1 is an Iranian microsatellite (170 kg). Iranian press reports that it is intended for "telecommunications and research".
Your satellite tracking list
Your tracking list is empty





NASA's NSSDC Master Catalog

Two Line Element Set (TLE):
1 28893U 05043D   17112.90237638 +.00000085 +00000-0 +26065-4 0  9998
2 28893 097.8678 273.6802 0014446 332.0170 028.0254 14.61428814612122
Source of the keplerian elements: AFSPC